TimeCST,TemperatureF,Dew PointF,Humidity,Sea Level PressureIn,VisibilityMPH,Wind Direction,Wind SpeedMPH,Gust SpeedMPH,PrecipitationIn,Events,Conditions,WindDirDegrees,DateUTC
12:15 AM,26.1,23.0,88,29.94,10.0,NW,9.2,-,N/A,,Clear,310,2013-02-13 06:15:00
12:35 AM,28.9,24.4,83,29.94,10.0,NW,11.5,-,N/A,,Clear,310,2013-02-13 06:35:00
12:55 AM,29.8,25.0,82,29.94,10.0,WNW,10.4,-,N/A,,Clear,300,2013-02-13 06:55:00
1:15 AM,29.7,24.4,81,29.94,10.0,WNW,13.8,-,N/A,,Clear,300,2013-02-13 07:15:00
1:35 AM,28.9,23.7,81,29.94,10.0,WNW,12.7,-,N/A,,Clear,290,2013-02-13 07:35:00
1:55 AM,28.8,23.7,81,29.93,10.0,WNW,11.5,-,N/A,,Clear,300,2013-02-13 07:55:00
2:15 AM,28.4,23.4,81,29.93,10.0,WNW,11.5,-,N/A,,Clear,290,2013-02-13 08:15:00
2:35 AM,28.2,23.0,81,29.93,10.0,WNW,11.5,-,N/A,,Scattered Clouds,290,2013-02-13 08:35:00
2:55 AM,29.1,23.4,79,29.92,10.0,WNW,10.4,-,N/A,,Scattered Clouds,300,2013-02-13 08:55:00
3:15 AM,29.3,23.4,78,29.91,10.0,WNW,8.1,-,N/A,,Mostly Cloudy,300,2013-02-13 09:15:00
3:35 AM,29.7,23.0,76,29.90,10.0,WNW,10.4,-,N/A,,Overcast,300,2013-02-13 09:35:00
3:55 AM,29.7,22.3,74,29.91,10.0,WNW,12.7,-,N/A,,Overcast,290,2013-02-13 09:55:00
4:15 AM,29.7,22.1,73,29.90,10.0,WNW,16.1,-,N/A,,Overcast,300,2013-02-13 10:15:00
4:35 AM,29.3,21.7,73,29.90,10.0,WNW,15.0,-,N/A,,Overcast,300,2013-02-13 10:35:00
4:55 AM,28.8,21.2,73,29.89,10.0,WNW,15.0,-,N/A,,Overcast,300,2013-02-13 10:55:00
5:15 AM,28.8,21.2,73,29.90,10.0,WNW,15.0,-,N/A,,Mostly Cloudy,300,2013-02-13 11:15:00
5:35 AM,28.4,21.2,74,29.89,10.0,WNW,13.8,-,N/A,,Mostly Cloudy,300,2013-02-13 11:35:00
5:55 AM,27.9,20.8,75,29.89,10.0,WNW,15.0,-,N/A,,Clear,300,2013-02-13 11:55:00
6:15 AM,28.0,21.0,75,29.90,10.0,WNW,11.5,-,N/A,,Scattered Clouds,300,2013-02-13 12:15:00
6:35 AM,28.2,20.8,74,29.90,10.0,WNW,11.5,-,N/A,,Mostly Cloudy,300,2013-02-13 12:35:00
6:55 AM,27.3,20.3,75,29.89,10.0,WNW,11.5,-,N/A,,Scattered Clouds,300,2013-02-13 12:55:00
7:15 AM,26.1,20.1,78,29.88,10.0,WNW,8.1,-,N/A,,Clear,300,2013-02-13 13:15:00
7:35 AM,23.9,19.4,83,29.88,10.0,WNW,5.8,-,N/A,,Clear,300,2013-02-13 13:35:00
7:55 AM,23.9,19.8,84,29.89,10.0,WNW,8.1,-,N/A,,Clear,300,2013-02-13 13:55:00
8:15 AM,25.7,20.3,80,29.89,10.0,WNW,8.1,-,N/A,,Clear,300,2013-02-13 14:15:00
8:35 AM,27.1,21.0,78,29.89,10.0,WNW,4.6,-,N/A,,Clear,290,2013-02-13 14:35:00
8:55 AM,28.6,21.7,76,29.89,10.0,NW,5.8,-,N/A,,Clear,310,2013-02-13 14:55:00
9:15 AM,30.2,22.1,72,29.89,10.0,WNW,8.1,-,N/A,,Clear,290,2013-02-13 15:15:00
9:35 AM,32.2,22.8,68,29.89,10.0,NW,9.2,-,N/A,,Clear,310,2013-02-13 15:35:00
9:55 AM,34.9,23.4,63,29.87,10.0,WNW,11.5,-,N/A,,Clear,300,2013-02-13 15:55:00
10:15 AM,36.7,23.4,59,29.87,10.0,WNW,12.7,-,N/A,,Clear,300,2013-02-13 16:15:00
10:35 AM,38.8,23.5,54,29.88,10.0,WNW,16.1,23.0,N/A,,Clear,300,2013-02-13 16:35:00
10:55 AM,40.5,23.2,50,29.87,10.0,WNW,13.8,20.7,N/A,,Clear,300,2013-02-13 16:55:00
11:15 AM,42.3,21.9,44,29.87,10.0,WNW,15.0,-,N/A,,Clear,290,2013-02-13 17:15:00
11:35 AM,44.6,21.2,39,29.86,10.0,WNW,17.3,-,N/A,,Clear,290,2013-02-13 17:35:00
11:55 AM,45.7,21.7,39,29.86,10.0,WNW,18.4,-,N/A,,Clear,300,2013-02-13 17:55:00
12:15 PM,46.0,22.1,39,29.86,10.0,WNW,20.7,26.5,N/A,,Clear,300,2013-02-13 18:15:00
12:35 PM,47.3,21.9,37,29.85,10.0,WNW,19.6,24.2,N/A,,Clear,290,2013-02-13 18:35:00
12:55 PM,48.6,22.5,36,29.84,10.0,WNW,15.0,-,N/A,,Clear,290,2013-02-13 18:55:00
1:15 PM,49.5,22.5,35,29.83,10.0,WNW,17.3,-,N/A,,Clear,300,2013-02-13 19:15:00
1:35 PM,50.5,23.0,34,29.83,10.0,WNW,17.3,-,N/A,,Clear,300,2013-02-13 19:35:00
1:55 PM,50.4,22.5,34,29.82,10.0,WNW,20.7,25.3,N/A,,Clear,300,2013-02-13 19:55:00
2:15 PM,50.2,23.4,35,29.80,10.0,NW,17.3,20.7,N/A,,Clear,310,2013-02-13 20:15:00
2:35 PM,50.5,24.1,36,29.81,10.0,WNW,21.9,26.5,N/A,,Clear,300,2013-02-13 20:35:00
2:55 PM,52.0,25.0,35,29.80,10.0,NW,15.0,19.6,N/A,,Clear,320,2013-02-13 20:55:00
3:15 PM,51.3,24.3,35,29.80,10.0,NW,15.0,-,N/A,,Clear,310,2013-02-13 21:15:00
3:35 PM,52.5,24.6,34,29.80,10.0,NW,19.6,26.5,N/A,,Clear,320,2013-02-13 21:35:00
3:55 PM,52.3,25.3,35,29.80,10.0,NW,16.1,-,N/A,,Clear,310,2013-02-13 21:55:00
4:15 PM,50.5,25.0,37,29.81,10.0,NW,18.4,-,N/A,,Clear,310,2013-02-13 22:15:00
4:35 PM,51.3,25.3,37,29.79,10.0,WNW,17.3,24.2,N/A,,Clear,290,2013-02-13 22:35:00
4:55 PM,51.1,26.4,38,29.79,10.0,WNW,15.0,20.7,N/A,,Clear,290,2013-02-13 22:55:00
5:15 PM,50.0,26.8,41,29.80,10.0,WNW,16.1,-,N/A,,Clear,290,2013-02-13 23:15:00
5:35 PM,48.2,27.5,45,29.80,10.0,West,11.5,-,N/A,,Clear,280,2013-02-13 23:35:00
5:55 PM,46.2,27.3,48,29.80,10.0,West,11.5,-,N/A,,Clear,280,2013-02-13 23:55:00
6:15 PM,43.7,26.8,51,29.81,10.0,WNW,10.4,-,N/A,,Clear,290,2013-02-14 00:15:00
6:35 PM,39.6,26.2,59,29.81,10.0,West,8.1,-,N/A,,Clear,280,2013-02-14 00:35:00
6:55 PM,36.7,25.3,64,29.81,10.0,West,6.9,-,N/A,,Clear,260,2013-02-14 00:55:00
7:15 PM,35.6,25.7,67,29.82,10.0,West,6.9,-,N/A,,Clear,280,2013-02-14 01:15:00
7:35 PM,34.9,25.2,68,29.82,10.0,West,8.1,-,N/A,,Clear,270,2013-02-14 01:35:00
7:55 PM,33.3,25.5,73,29.83,10.0,West,8.1,-,N/A,,Scattered Clouds,270,2013-02-14 01:55:00
8:15 PM,35.6,27.3,72,29.83,10.0,West,8.1,-,N/A,,Mostly Cloudy,270,2013-02-14 02:15:00
8:35 PM,36.5,27.5,70,29.83,10.0,West,5.8,-,N/A,,Overcast,280,2013-02-14 02:35:00
8:55 PM,37.4,28.2,69,29.84,10.0,WNW,8.1,-,N/A,,Overcast,300,2013-02-14 02:55:00
9:15 PM,36.1,27.5,71,29.85,10.0,NW,10.4,-,N/A,,Overcast,320,2013-02-14 03:15:00
9:35 PM,39.2,27.9,64,29.86,10.0,WNW,13.8,-,N/A,,Mostly Cloudy,290,2013-02-14 03:35:00
9:55 PM,38.1,28.4,68,29.88,10.0,WNW,13.8,-,N/A,,Overcast,290,2013-02-14 03:55:00
10:15 PM,38.1,29.3,71,29.89,10.0,WNW,16.1,-,N/A,,Overcast,300,2013-02-14 04:15:00
10:35 PM,38.5,30.2,72,29.90,10.0,NW,17.3,-,N/A,,Scattered Clouds,310,2013-02-14 04:35:00
10:55 PM,39.2,31.1,73,29.89,10.0,WNW,15.0,-,N/A,,Mostly Cloudy,300,2013-02-14 04:55:00
11:15 PM,38.3,31.8,77,29.91,10.0,NW,13.8,-,N/A,,Mostly Cloudy,310,2013-02-14 05:15:00
11:35 PM,37.0,31.5,80,29.91,10.0,WNW,13.8,-,N/A,,Scattered Clouds,300,2013-02-14 05:35:00
11:55 PM,37.4,31.8,80,29.92,10.0,NW,11.5,-,N/A,,Clear,310,2013-02-14 05:55:00